Weather reports worldwide

Advertisment
Catania/Sigonella, Italy (16459): temperature & dewpoint: 16.01.2019 04:00:00 - 22.01.2019 04:00:00 (CET)Catania/Sigonella, Italy (16459): wind speed: 16.01.2019 04:00:00 - 22.01.2019 04:00:00 (CET)Catania/Sigonella, Italy (16459): wind direction: 16.01.2019 04:00:00 - 22.01.2019 04:00:00 (CET)Catania/Sigonella, Italy (16459): reduced air pressure: 16.01.2019 04:00:00 - 22.01.2019 04:00:00 (CET)Catania/Sigonella, Italy (16459): visibility: 16.01.2019 04:00:00 - 22.01.2019 04:00:00 (CET)
Date & Time tt [°C] td [°C] ff [km/h] ff [kn] dd ppp [hPa] vv [km]
22.01.2019 04:00:00 7,4 7,4 8 4 NW 1008,6 3,0
22.01.2019 03:00:00 8,0 8,0 8 4 SSW - 3,5
22.01.2019 02:00:00 7,0 7,0 8 4 WNW - 3,0
22.01.2019 01:00:00 7,2 7,2 9 5 WSW 1009,7 2,5
22.01.2019 00:00:00 8,0 8,0 4 2 WSW - 1,0
21.01.2019 23:00:00 8,0 8,0 5 3 W - 0,9
21.01.2019 22:00:00 7,4 7,4 4 2 W 1010,3 0,7
21.01.2019 21:00:00 7,0 7,0 4 2 WSW - 0,1
21.01.2019 20:00:00 8,0 8,0 4 2 SW - 0,1
21.01.2019 19:00:00 8,2 7,0 5 3 WSW 1010,9 8
21.01.2019 18:00:00 10,0 9,0 8 4 NW - 8
21.01.2019 17:00:00 11,0 9,0 4 2 SSE - 8
21.01.2019 16:00:00 10,2 9,0 5 3 E 1010,6 8
21.01.2019 15:00:00 10,0 8,0 4 2 E - 8
21.01.2019 14:00:00 10,0 8,0 4 2 NNW - 8
21.01.2019 13:00:00 9,2 6,3 8 4 WSW 1013,2 8
21.01.2019 12:00:00 8,0 6,0 2 1 WNW - 7
21.01.2019 11:00:00 7,0 5,0 4 2 W - 8
21.01.2019 10:00:00 6,2 4,7 5 3 SSW 1014,0 8
21.01.2019 09:00:00 5,0 3,0 8 4 SSW - 8
21.01.2019 08:00:00 3,0 2,0 5 3 WSW - 10
21.01.2019 07:00:00 4,0 2,5 5 3 WSW 1014,7 10
21.01.2019 06:00:00 4,0 2,0 9 5 WSW - 10
21.01.2019 05:00:00 4,0 2,0 9 5 WSW - 10
21.01.2019 04:00:00 4,0 2,5 13 7 W 1014,9 10
21.01.2019 03:00:00 4,0 3,0 8 4 W - 10
21.01.2019 02:00:00 6,0 4,0 11 6 WNW - 10
21.01.2019 01:00:00 4,0 2,5 11 6 W 1015,2 10
21.01.2019 00:00:00 4,0 3,0 9 5 WSW - 10
20.01.2019 23:00:00 6,0 5,0 9 5 W - 10
20.01.2019 22:00:00 6,0 5,3 5 3 WSW 1014,8 10
20.01.2019 21:00:00 8,0 7,0 4 2 WNW - 10
20.01.2019 20:00:00 8,0 7,0 5 3 WSW - 10
20.01.2019 19:00:00 9,6 8,1 2 1 NNE 1014,0 15
20.01.2019 18:00:00 10,0 8,0 8 4 E - 10
20.01.2019 17:00:00 12,0 9,0 15 8 E - 10
20.01.2019 16:00:00 16,0 9,4 9 5 W 1012,7 16
20.01.2019 15:00:00 17,0 5,0 9 5 WSW - 10
20.01.2019 14:00:00 16,0 4,0 8 4 WNW - 10
20.01.2019 13:00:00 16,6 5,3 5 3 WSW 1013,5 18
20.01.2019 12:00:00 15,0 6,0 8 4 W - 10
20.01.2019 11:00:00 13,0 8,0 5 3 WSW - 10
20.01.2019 10:00:00 10,8 8,0 5 3 WNW 1015,5 16
20.01.2019 09:00:00 7,0 5,0 8 4 W - 10
20.01.2019 08:00:00 5,0 4,0 8 4 WSW - 10
20.01.2019 07:00:00 5,6 3,9 11 6 W 1014,6 8
20.01.2019 06:00:00 6,0 4,0 9 5 W - 8
20.01.2019 05:00:00 5,0 5,0 11 6 W - 10
20.01.2019 04:00:00 5,6 4,1 11 6 WNW 1014,6 10
20.01.2019 03:00:00 5,0 4,0 8 4 WNW - 10
20.01.2019 02:00:00 5,0 4,0 9 5 W - 10
20.01.2019 01:00:00 4,0 2,7 8 4 WSW 1015,0 10
20.01.2019 00:00:00 5,0 4,0 9 5 W - 10
19.01.2019 23:00:00 5,0 4,0 9 5 W - 10
19.01.2019 22:00:00 7,0 6,1 4 2 WNW 1015,0 10
19.01.2019 21:00:00 8,0 7,0 4 2 NNE - 10
19.01.2019 20:00:00 7,0 7,0 8 4 S - 10
19.01.2019 19:00:00 10,0 10,0 5 3 N 1014,1 10
19.01.2019 18:00:00 15,0 15,0 8 4 NNE - 10
19.01.2019 17:00:00 16,0 15,0 11 6 SE - 10
19.01.2019 16:00:00 16,4 7,4 8 4 WSW 1013,5 10
19.01.2019 15:00:00 17,0 7,0 9 5 WSW - 10
19.01.2019 14:00:00 17,0 7,0 9 5 W - 10
19.01.2019 13:00:00 17,0 6,5 5 3 WNW 1014,0 10
19.01.2019 12:00:00 15,0 7,0 8 4 WSW - 10
19.01.2019 11:00:00 13,0 8,0 8 4 WSW - 8
19.01.2019 10:00:00 10,6 8,4 8 4 W 1015,8 4,0
19.01.2019 09:00:00 6,0 6,0 8 4 W - 4,0
19.01.2019 08:00:00 3,0 3,0 15 8 W - 2,0
19.01.2019 07:00:00 2,2 2,2 11 6 WSW 1014,8 0,3
19.01.2019 06:00:00 3,0 3,0 9 5 WSW - -
19.01.2019 05:00:00 4,0 4,0 8 4 W - 8
19.01.2019 04:00:00 4,0 4,0 9 5 W 1015,1 8
19.01.2019 03:00:00 4,0 4,0 9 5 W - 8
19.01.2019 02:00:00 7,0 7,0 15 8 W - 9
19.01.2019 01:00:00 7,0 7,0 11 6 WNW 1015,8 8
19.01.2019 00:00:00 8,0 8,0 9 5 W - 8
18.01.2019 23:00:00 7,0 7,0 11 6 W - 9
18.01.2019 22:00:00 6,4 6,4 13 7 W 1015,8 9
18.01.2019 21:00:00 9,0 9,0 8 4 W - 9
18.01.2019 20:00:00 10,0 10,0 9 5 E - 8
18.01.2019 19:00:00 10,2 10,2 11 6 NE 1016,1 8
18.01.2019 18:00:00 10,0 10,0 8 4 NE - 8
18.01.2019 17:00:00 12,0 10,0 8 4 SE - 8
18.01.2019 16:00:00 15,2 6,2 4 2 WSW 1015,6 8
18.01.2019 15:00:00 17,0 7,0 4 2 W - 8
18.01.2019 14:00:00 18,0 9,0 11 6 WNW - 8
18.01.2019 13:00:00 16,0 9,9 8 4 W 1016,7 8
18.01.2019 12:00:00 15,0 11,0 11 6 W - 8
18.01.2019 11:00:00 13,0 12,0 9 5 WNW - 8
18.01.2019 10:00:00 10,0 10,0 15 8 W 1018,6 8
18.01.2019 09:00:00 8,0 8,0 8 4 W - 8
18.01.2019 08:00:00 6,0 6,0 11 6 WSW - 6
18.01.2019 07:00:00 6,2 6,2 9 5 S 1017,7 5
18.01.2019 06:00:00 5,0 5,0 5 3 W - 8
18.01.2019 05:00:00 4,0 4,0 4 2 WSW - 3,5
18.01.2019 04:00:00 4,0 4,0 4 2 WNW 1018,6 5
18.01.2019 03:00:00 4,0 4,0 8 4 SSW - 3,5
18.01.2019 02:00:00 5,0 5,0 8 4 SSW - 3,5
18.01.2019 01:00:00 5,0 5,0 5 3 SSW 1019,7 0,5
18.01.2019 00:00:00 5,0 5,0 8 4 SW - 0,2
17.01.2019 23:00:00 6,0 6,0 11 6 W - 0,8
17.01.2019 22:00:00 7,4 6,7 11 6 NNE 1020,5 7
17.01.2019 21:00:00 8,0 7,0 8 4 W - 8
17.01.2019 20:00:00 8,0 7,0 8 4 SW - 8
17.01.2019 19:00:00 8,8 8,2 8 4 W 1019,7 9
17.01.2019 18:00:00 9,0 9,0 4 2 SSW - 8
17.01.2019 17:00:00 10,0 10,0 8 4 S - 6
17.01.2019 16:00:00 10,8 10,8 2 1 NNE 1020,5 7
17.01.2019 15:00:00 11,0 11,0 5 3 NNE - 6
17.01.2019 14:00:00 11,0 11,0 8 4 W - 2,0
17.01.2019 13:00:00 10,8 9,6 2 1 S 1021,3 8
17.01.2019 12:00:00 11,0 10,0 5 3 SW - 9
17.01.2019 11:00:00 12,0 9,0 5 3 SW - 10
17.01.2019 10:00:00 10,0 8,8 9 5 WSW 1022,6 10
17.01.2019 09:00:00 7,0 6,0 4 2 SW - 10
17.01.2019 08:00:00 5,0 4,0 5 3 SW - 10
17.01.2019 07:00:00 4,6 4,0 5 3 W 1022,7 13
17.01.2019 06:00:00 4,0 4,0 11 6 WNW - 10
17.01.2019 05:00:00 3,0 3,0 5 3 W - 10
17.01.2019 04:00:00 3,0 3,0 8 4 SW 1023,7 13
17.01.2019 03:00:00 3,0 3,0 9 5 WSW - 10
17.01.2019 02:00:00 4,0 4,0 9 5 SW - 10
17.01.2019 01:00:00 3,6 3,6 11 6 W 1024,8 13
17.01.2019 00:00:00 4,0 4,0 9 5 W - 10
16.01.2019 23:00:00 5,0 5,0 11 6 W - 10
16.01.2019 22:00:00 5,4 4,2 9 5 W 1024,8 15
16.01.2019 21:00:00 6,0 5,0 8 4 WNW - 10
16.01.2019 20:00:00 6,0 5,0 4 2 WNW - 10
16.01.2019 19:00:00 8,0 5,1 11 6 W 1024,5 15
16.01.2019 18:00:00 10,0 4,0 13 7 W - 10
16.01.2019 17:00:00 11,0 1,0 13 7 WSW - 10
16.01.2019 16:00:00 14,8 -0,5 15 8 W 1024,2 15
16.01.2019 15:00:00 16,0 0,0 15 8 WSW - 10
16.01.2019 14:00:00 15,0 1,0 11 6 W - 10
16.01.2019 13:00:00 15,0 1,9 8 4 WSW 1025,6 18
16.01.2019 12:00:00 14,0 2,0 5 3 W - 10
16.01.2019 11:00:00 11,0 3,0 9 5 WNW - 10
16.01.2019 10:00:00 8,0 3,3 11 6 W 1026,7 18
16.01.2019 09:00:00 5,0 3,0 13 7 W - 10
16.01.2019 08:00:00 0,0 0,0 13 7 W - 10
16.01.2019 07:00:00 -0,6 -0,6 9 5 W 1026,2 12
16.01.2019 06:00:00 -1,0 -1,0 9 5 SW - 10
16.01.2019 05:00:00 0,0 0,0 5 3 WSW - 10
16.01.2019 04:00:00 1,0 1,0 8 4 W 1024,7 10

tt = temperature
td = dewpoint
ff = wind speed
dd = wind direction
ppp = reduced air pressure
vv = visibility

Next stations